Kuchera_Ratio
4.5 5.0 5.4 5.8 6.0 6.3 6.5 6.9 7.2 7.6 7.9 8.4 9.0 9.6 10.2 10.6 11.0 11.6 12.2 12.5 12.7 13.0 13.2 13.5 13.2 12.7 12.3 12.1 12.1 12.4 12.6 12.6 12.8 12.8 12.7 12.4 12.6 12.7 12.7 12.9 13.0 13.3 13.5 13.5 13.5 13.7 13.8 13.7 13.9 13.5 12.9 12.5 12.7 13.0 13.0 12.7 13.4 14.3 15.3 15.6 15.1 15.5 16.0 16.2 16.0 16.0 16.1 16.2 15.7
4.4 4.9 5.5 5.9 6.0 6.3 6.5 6.8 7.2 7.6 8.0 8.5 9.0 9.7 10.3 10.8 11.2 11.8 12.2 12.5 12.8 13.0 13.3 13.1 12.7 12.6 12.6 12.4 12.2 12.4 12.8 13.1 13.2 13.2 13.2 13.1 13.1 13.1 13.2 13.4 13.4 13.4 13.5 13.7 13.9 13.9 13.7 13.5 13.6 13.4 13.0 12.6 12.9 13.9 13.4 12.9 13.4 14.1 15.8 16.3 15.6 15.4 15.4 15.4 15.4 15.6 15.8 15.7 15.7
4.3 5.0 5.5 5.8 6.0 6.2 6.5 6.9 7.3 7.7 8.1 8.6 9.2 9.8 10.3 10.9 11.4 11.9 12.2 12.5 12.8 13.1 13.3 13.3 12.9 12.7 12.7 12.7 12.4 12.5 12.8 13.1 13.3 13.6 13.8 13.8 13.5 13.3 13.3 13.4 13.4 13.4 13.4 13.5 13.8 13.8 13.7 13.8 13.5 12.9 12.6 12.8 13.6 14.0 14.1 13.4 13.5 13.9 15.7 16.1 15.3 14.8 14.5 14.3 14.7 15.0 14.9 14.6 15.6
4.3 4.9 5.3 5.6 5.9 6.2 6.6 7.0 7.3 7.7 8.2 8.7 9.2 9.8 10.3 10.9 11.5 11.9 12.1 12.4 12.7 13.1 13.4 13.6 13.2 12.8 12.6 12.7 12.7 12.7 12.7 12.7 12.9 13.4 13.8 13.9 13.7 13.4 13.3 13.3 13.7 13.9 13.8 13.8 14.0 14.2 14.3 14.3 13.5 13.0 13.0 14.3 14.9 14.8 14.4 14.0 13.8 15.0 14.9 15.1 14.6 14.4 14.2 13.8 14.0 13.9 13.9 14.0 14.8
4.3 4.8 5.2 5.6 6.0 6.4 6.7 7.0 7.3 7.7 8.2 8.7 9.2 9.7 10.3 11.0 11.5 11.9 12.2 12.4 12.7 13.1 13.2 13.1 13.1 13.0 12.7 12.6 12.8 12.9 13.1 13.2 12.9 12.9 13.3 13.6 13.6 13.5 13.4 13.6 14.0 14.1 14.0 14.0 14.2 14.2 14.3 14.2 13.4 12.9 13.1 14.1 14.1 14.2 14.5 14.6 15.6 15.6 15.1 14.2 14.0 13.8 13.6 13.5 13.5 13.5 13.6 13.8 14.2
4.3 4.8 5.4 5.8 6.2 6.5 6.8 7.0 7.3 7.6 8.1 8.7 9.2 9.7 10.5 11.2 11.7 12.0 12.2 12.5 12.8 13.2 13.0 13.0 12.9 12.5 12.3 12.4 12.9 13.4 13.8 13.9 13.7 13.7 14.0 14.4 14.2 14.0 13.9 14.0 14.1 14.2 14.2 14.2 14.3 14.2 14.2 14.1 13.4 13.2 13.3 13.5 14.3 13.8 14.0 14.6 15.6 15.4 15.1 14.4 14.0 13.6 13.4 13.5 13.6 13.6 13.7 14.1 14.7
4.4 5.0 5.5 5.9 6.3 6.6 6.8 7.1 7.4 7.7 8.1 8.5 9.1 9.8 10.6 11.3 11.8 12.1 12.3 12.6 12.9 13.2 13.4 12.8 12.5 12.4 12.6 13.2 13.8 14.2 14.3 14.2 14.1 14.1 14.4 14.7 14.5 14.3 14.3 14.3 14.3 14.4 14.6 14.5 14.4 14.2 14.1 14.0 13.9 13.6 13.1 12.4 12.7 13.9 14.0 14.5 15.2 15.1 15.0 14.8 14.1 13.6 13.4 13.8 13.9 13.9 14.1 14.8 15.4
4.5 5.0 5.5 6.0 6.4 6.7 7.0 7.2 7.4 7.7 8.0 8.5 9.1 9.9 10.7 11.3 11.8 12.1 12.3 12.6 12.9 13.3 13.7 12.9 13.0 13.3 13.7 14.4 14.9 15.0 15.1 15.4 15.3 14.9 14.6 14.8 15.0 15.0 14.8 14.7 14.9 14.9 14.7 14.4 14.3 14.3 14.3 14.0 13.9 13.6 13.4 13.3 13.2 13.6 14.3 15.2 15.6 15.6 15.5 15.3 14.6 14.1 13.9 14.2 14.7 14.7 14.7 15.0 15.5
4.5 5.0 5.5 6.0 6.5 6.8 7.0 7.3 7.4 7.6 8.0 8.5 9.3 10.0 10.7 11.3 11.7 12.1 12.4 12.7 13.0 13.4 13.6 13.4 13.4 13.6 14.2 14.8 15.0 15.2 15.4 15.6 15.7 15.8 15.2 14.9 15.4 15.7 15.5 15.2 15.5 15.2 14.5 14.0 14.0 14.5 14.8 14.4 13.9 13.7 13.8 13.7 13.8 14.0 14.4 15.2 15.7 15.9 15.7 15.2 14.6 14.4 14.3 14.5 15.4 15.5 15.3 14.9 15.2
4.5 5.0 5.6 6.2 6.6 7.0 7.2 7.3 7.4 7.6 8.0 8.5 9.3 10.1 10.8 11.3 11.7 12.1 12.4 12.7 13.0 13.3 13.6 13.9 13.8 14.3 14.6 14.8 15.0 15.2 15.4 15.6 15.6 15.8 15.8 15.4 15.3 15.9 16.1 15.9 16.3 15.9 14.9 14.3 14.1 14.4 14.8 14.6 14.3 14.4 14.6 14.6 14.9 15.0 15.2 15.4 15.7 15.9 15.7 14.9 14.6 14.6 14.9 14.9 15.4 15.6 15.4 14.8 15.0
4.6 5.3 5.9 6.5 6.9 7.2 7.3 7.3 7.4 7.6 8.0 8.6 9.3 10.1 10.8 11.3 11.9 12.2 12.5 12.7 12.9 13.2 13.6 14.0 14.2 14.4 14.6 14.8 15.0 15.2 15.3 15.0 14.9 15.4 15.9 16.0 15.6 15.9 16.0 16.1 16.2 16.2 15.9 15.1 14.6 14.5 14.5 14.5 14.9 15.2 15.4 15.0 15.2 15.3 15.4 15.6 15.7 15.9 15.8 15.2 15.1 15.1 15.3 15.3 15.4 15.4 15.2 14.8 14.8
4.9 5.5 6.1 6.6 7.0 7.2 7.3 7.3 7.4 7.7 8.1 8.7 9.4 10.1 10.8 11.5 12.0 12.3 12.5 12.7 12.9 13.2 13.6 13.9 14.2 14.4 14.6 14.8 15.0 14.9 14.4 14.7 15.1 15.8 15.9 15.9 15.9 15.9 15.9 15.9 16.0 16.1 16.1 15.5 14.9 14.6 15.0 15.2 15.5 15.6 15.7 15.6 15.1 15.0 15.1 15.5 15.7 15.8 15.8 15.6 15.5 15.5 15.6 15.5 15.6 15.3 14.9 14.6 14.7
5.1 5.8 6.3 6.7 7.0 7.2 7.2 7.2 7.4 7.8 8.2 8.8 9.5 10.2 11.0 11.6 12.1 12.3 12.5 12.6 12.9 13.2 13.6 14.0 14.2 14.4 14.6 14.8 15.0 14.9 14.8 14.9 15.4 15.6 15.8 15.8 15.8 15.7 15.8 15.8 15.8 15.9 16.0 15.5 15.0 14.9 15.4 15.6 15.9 16.0 16.0 15.8 15.3 15.1 15.1 15.5 15.7 15.8 15.8 15.8 15.7 15.6 15.6 15.6 15.4 15.1 14.6 14.4 14.6
5.4 6.0 6.4 6.7 7.0 7.2 7.2 7.2 7.5 7.8 8.3 8.9 9.6 10.3 11.0 11.7 12.1 12.3 12.4 12.6 12.9 13.2 13.6 13.9 14.2 14.4 14.5 14.7 14.7 14.8 14.9 15.0 15.5 15.7 15.7 15.7 15.6 15.6 15.7 15.7 15.7 15.7 15.8 15.6 15.3 15.1 16.1 16.0 16.0 16.1 16.1 16.0 15.7 15.5 15.4 15.5 15.6 15.7 15.8 15.8 15.8 15.7 15.6 15.5 15.3 15.1 14.7 14.5 14.7
5.5 5.9 6.3 6.7 7.0 7.1 7.1 7.2 7.5 7.9 8.5 9.0 9.7 10.5 11.1 11.6 12.1 12.3 12.4 12.6 12.9 13.2 13.5 13.8 14.1 14.3 13.8 13.8 14.3 14.8 15.1 15.5 15.6 15.6 15.6 15.6 15.5 15.5 15.5 15.5 15.5 15.6 15.6 15.7 15.7 15.8 15.9 16.0 16.1 16.1 16.1 16.1 16.0 15.8 15.6 15.5 15.6 15.6 15.6 15.6 15.6 15.5 15.4 15.3 15.2 15.0 14.8 14.6 15.0
5.4 5.8 6.2 6.6 6.9 7.0 7.1 7.2 7.5 8.0 8.5 9.0 9.8 10.5 11.1 11.6 12.1 12.3 12.4 12.6 12.9 13.1 13.4 13.6 13.9 14.2 14.5 14.1 14.0 14.5 15.3 15.4 15.5 15.5 15.5 15.5 15.4 15.4 15.4 15.4 15.4 15.5 15.5 15.6 15.7 15.7 15.7 15.8 15.9 16.1 16.1 16.1 16.0 15.9 15.7 15.6 15.5 15.5 15.5 15.4 15.3 15.2 15.1 15.0 14.9 14.7 14.6 14.5 14.8
5.1 5.6 6.1 6.5 6.8 6.9 7.0 7.3 7.6 8.0 8.5 9.0 9.8 10.5 11.0 11.6 12.0 12.2 12.4 12.6 12.8 13.1 13.3 13.6 13.8 14.2 14.5 14.6 14.0 14.3 15.2 15.4 15.4 15.4 15.4 15.4 15.4 15.3 15.3 15.3 15.3 15.4 15.4 15.5 15.6 15.6 15.6 15.7 15.7 15.9 16.0 16.1 16.0 15.9 15.7 15.6 15.5 15.3 15.2 15.2 15.0 14.9 14.7 14.4 14.4 14.3 14.2 14.2 14.4
5.0 5.5 6.0 6.4 6.6 6.8 7.1 7.4 7.7 8.0 8.4 9.0 9.8 10.5 11.0 11.5 12.0 12.2 12.4 12.6 12.8 13.0 13.2 13.5 13.8 14.1 14.4 14.7 14.9 15.1 15.0 15.3 15.3 15.3 15.3 15.3 15.3 15.2 15.2 15.2 15.2 15.2 15.3 15.4 15.5 15.5 15.5 15.6 15.7 15.8 15.8 15.9 15.8 15.7 15.4 15.2 15.1 14.9 14.8 14.8 14.7 14.5 14.3 14.1 14.0 14.0 14.0 14.1 14.1
4.8 5.3 5.8 6.2 6.5 6.8 7.2 7.5 7.7 8.0 8.4 9.0 9.8 10.5 11.0 11.5 11.9 12.1 12.3 12.5 12.8 12.9 13.1 13.3 13.7 14.0 14.3 14.5 14.7 14.9 14.8 15.2 15.2 15.2 15.2 15.2 15.2 15.1 15.1 15.1 15.1 15.2 15.2 15.3 15.4 15.4 15.4 15.5 15.6 15.7 15.7 15.7 15.5 15.2 14.9 14.7 14.7 14.6 14.5 14.6 14.4 14.1 13.9 13.8 13.6 13.6 13.6 13.8 13.8
4.7 5.2 5.6 6.1 6.5 7.0 7.4 7.6 7.7 8.0 8.4 9.0 9.7 10.4 10.9 11.4 11.8 12.0 12.2 12.5 12.8 12.9 13.1 13.2 13.6 13.9 14.3 14.5 14.6 14.8 15.0 15.1 15.1 15.1 15.1 15.1 15.1 15.0 15.0 15.0 15.0 15.1 15.1 15.2 15.2 15.3 15.4 15.5 15.6 15.6 15.5 15.3 15.1 14.7 14.4 14.3 14.2 14.2 14.2 14.5 14.0 13.7 13.4 13.2 13.1 13.1 13.3 13.5 13.7
4.6 5.0 5.5 6.2 6.8 7.3 7.5 7.7 7.8 8.0 8.4 8.9 9.6 10.3 11.0 11.5 11.8 12.0 12.2 12.4 12.7 12.9 13.0 13.2 13.5 13.9 14.2 14.4 14.5 14.7 14.9 14.9 15.1 15.1 15.1 15.0 15.0 14.9 14.9 14.9 15.0 15.0 15.1 15.1 15.1 15.2 15.3 15.5 15.6 15.5 15.2 14.9 14.6 14.3 14.1 13.9 13.8 13.9 14.2 13.9 13.4 13.1 12.8 12.6 12.6 12.7 13.0 13.3 13.4
4.4 5.0 5.7 6.5 7.1 7.5 7.7 7.8 7.9 8.0 8.3 8.8 9.5 10.4 11.0 11.5 11.7 12.0 12.2 12.4 12.5 12.7 13.0 13.3 13.6 13.8 14.1 14.2 14.4 14.5 14.7 14.8 15.0 15.0 15.0 15.0 14.9 14.8 14.8 14.8 14.9 15.0 15.0 15.0 15.1 15.2 15.4 15.5 15.4 15.2 14.8 14.5 14.2 13.9 13.7 13.7 13.8 14.1 13.7 13.1 12.8 12.5 12.3 12.2 12.2 12.5 12.7 13.0 13.2
4.5 5.2 6.0 6.8 7.3 7.7 7.8 7.8 7.8 7.8 8.1 8.7 9.5 10.4 11.0 11.4 11.7 12.0 12.1 12.2 12.4 12.6 12.9 13.2 13.6 13.8 14.0 14.2 14.3 14.4 14.5 14.7 14.9 14.9 14.9 14.8 14.8 14.7 14.7 14.8 14.8 14.9 14.9 15.0 15.1 15.3 15.6 15.6 15.3 14.9 14.5 14.1 13.8 13.7 13.6 13.5 12.9 12.5 12.1 11.8 11.7 11.6 11.7 12.1 12.5 12.8 13.1 13.3 13.2
4.7 5.5 6.3 7.0 7.5 7.7 7.8 7.7 7.6 7.7 8.0 8.6 9.5 10.4 11.0 11.4 11.6 11.9 12.0 12.1 12.3 12.5 12.8 13.2 13.5 13.8 14.0 14.1 14.2 14.4 14.5 14.6 14.8 14.8 14.7 14.7 14.7 14.7 14.7 14.8 14.8 14.9 14.9 15.0 15.2 14.6 14.1 13.5 13.3 12.8 12.3 11.7 11.2 10.4 9.6 9.0 8.7 8.7 9.2 10.1 11.0 11.9 12.5 13.3 13.9 14.1 14.0 13.8 13.5
5.1 5.8 6.5 7.1 7.5 7.7 7.6 7.5 7.4 7.5 8.0 8.7 9.7 10.5 11.0 11.3 11.5 11.7 11.9 12.0 12.2 12.5 12.8 13.1 13.4 13.7 13.9 14.0 14.2 14.3 14.4 14.6 14.7 14.8 14.7 14.7 14.7 14.7 14.7 14.7 14.8 14.8 14.8 14.9 12.0 7.9 5.6 5.1 5.7 6.4 7.0 7.2 7.4 7.3 7.2 7.4 7.6 8.6 10.3 12.2 12.8 13.4 14.1 14.5 14.7 14.9 15.1 14.7 14.1
5.3 6.0 6.7 7.2 7.5 7.6 7.5 7.3 7.3 7.5 8.2 9.0 9.9 10.5 10.8 11.1 11.4 11.6 11.7 11.9 12.2 12.5 12.8 13.1 13.3 13.6 13.8 13.9 14.1 14.2 14.4 14.6 14.7 14.8 14.8 14.7 14.7 14.7 14.7 14.7 14.8 14.8 14.8 13.2 8.6 4.9 2.8 1.4 1.0 2.1 4.1 6.4 6.6 6.8 7.1 7.4 8.5 10.7 12.6 13.6 13.9 14.2 14.5 14.7 15.0 15.2 15.3 14.7 14.3
5.5 6.1 6.7 7.1 7.5 7.5 7.3 7.2 7.4 7.8 8.3 9.0 9.7 10.2 10.7 11.1 11.4 11.5 11.5 11.7 12.1 12.4 12.7 13.0 13.3 13.5 13.7 13.8 13.9 14.1 14.3 14.6 14.7 14.7 14.7 14.8 14.7 14.6 14.6 14.7 14.8 14.7 14.4 11.0 6.2 3.4 1.8 0.7 0.0 0.0 1.5 4.7 5.6 6.4 7.2 8.0 10.9 12.8 13.3 13.7 14.0 14.3 14.7 15.0 15.1 14.4 13.6 13.1 13.1
5.6 6.1 6.7 7.2 7.4 7.3 7.2 7.3 7.5 7.8 8.2 8.9 9.5 10.2 10.8 11.1 11.3 11.3 11.4 11.7 12.1 12.3 12.6 12.9 13.2 13.4 13.5 13.6 13.7 13.9 14.2 14.4 14.6 14.7 14.7 14.7 14.5 14.4 14.5 14.6 14.7 14.5 12.6 6.9 4.2 2.5 1.4 0.5 0.0 0.0 0.0 1.2 4.5 6.2 7.7 10.1 12.4 13.0 13.4 13.8 14.1 14.4 14.7 15.0 14.4 13.6 12.9 12.6 12.8
5.6 6.2 6.7 7.1 7.3 7.2 7.2 7.3 7.4 7.6 8.1 8.9 9.7 10.4 10.8 11.0 11.0 11.1 11.3 11.6 12.0 12.2 12.5 12.8 13.0 13.2 13.3 13.4 13.6 13.9 14.1 14.3 14.5 14.6 14.6 14.5 14.4 14.3 14.4 14.6 14.8 13.5 10.2 5.0 3.6 2.4 1.5 0.4 0.0 0.0 0.0 0.0 2.8 6.0 8.9 12.1 12.8 13.2 13.6 13.9 14.2 14.4 14.7 15.0 14.7 14.1 13.5 13.2 13.7
5.7 6.3 6.8 7.0 7.2 7.2 7.2 7.2 7.4 7.8 8.5 9.2 9.9 10.3 10.5 10.6 10.7 11.0 11.3 11.6 11.9 12.2 12.4 12.7 12.9 13.0 13.2 13.4 13.6 13.8 14.0 14.2 14.3 14.4 14.4 14.4 14.2 14.2 14.3 14.4 14.5 13.3 10.6 5.5 3.8 2.5 1.3 0.1 0.0 0.0 0.0 0.0 1.6 6.1 10.3 12.7 13.1 13.5 13.8 14.1 14.3 14.5 14.7 15.0 15.0 13.9 13.0 12.7 13.6
5.9 6.4 6.8 7.0 7.1 7.1 7.1 7.2 7.6 8.1 8.8 9.4 9.8 10.0 10.1 10.2 10.4 10.8 11.3 11.7 12.0 12.1 12.3 12.5 12.6 12.8 13.0 13.3 13.5 13.6 13.8 14.0 14.1 14.2 14.3 14.2 14.1 14.0 14.1 14.4 14.7 13.9 11.1 5.7 3.7 2.2 0.9 0.0 0.0 0.0 0.0 0.0 1.6 6.9 12.1 12.9 13.3 13.7 14.0 14.2 14.3 14.4 14.7 15.0 15.3 14.1 13.1 13.1 13.9
6.0 6.5 6.9 7.0 7.1 7.1 7.1 7.4 7.9 8.4 9.0 9.4 9.5 9.5 9.6 9.8 10.3 10.9 11.5 11.8 12.0 12.1 12.2 12.4 12.5 12.7 12.9 13.1 13.3 13.4 13.6 13.8 14.0 14.1 14.1 14.1 14.0 13.9 14.0 14.2 14.6 13.9 10.8 5.3 3.4 1.9 0.7 0.0 0.0 0.0 0.0 0.0 1.9 8.1 12.7 13.1 13.5 13.8 14.1 14.3 14.3 14.4 14.6 15.0 15.3 14.5 13.6 13.6 14.1
6.1 6.6 6.9 7.0 7.0 7.0 7.2 7.6 8.0 8.5 9.0 9.2 9.2 9.1 9.3 9.7 10.3 11.0 11.5 11.8 11.9 12.0 12.2 12.3 12.4 12.6 12.8 13.0 13.2 13.3 13.5 13.7 13.8 13.9 13.9 13.9 13.9 13.8 13.8 14.0 14.5 13.0 8.9 4.6 3.1 1.8 0.8 0.0 0.0 0.0 0.0 0.0 2.9 9.1 12.9 13.3 13.6 13.9 14.1 14.2 14.2 14.2 14.5 14.9 15.4 15.4 14.4 13.7 13.9
6.1 6.6 6.8 6.9 7.0 7.0 7.3 7.7 8.1 8.6 8.9 9.0 8.8 8.7 9.0 9.6 10.3 10.9 11.4 11.7 11.9 12.0 12.1 12.2 12.4 12.6 12.8 12.9 13.1 13.2 13.3 13.5 13.6 13.7 13.7 13.7 13.7 13.7 13.7 13.9 14.4 12.2 7.4 4.2 3.0 1.9 1.1 0.2 0.0 0.0 0.0 0.0 4.4 10.4 13.2 13.5 13.8 14.0 14.1 14.1 14.1 14.1 14.4 14.9 15.3 15.6 15.5 14.5 14.2
6.0 6.4 6.6 6.7 6.8 7.0 7.3 7.6 8.1 8.5 8.7 8.6 8.3 8.4 8.8 9.4 10.1 10.8 11.4 11.9 12.0 12.0 12.0 12.1 12.3 12.5 12.7 12.8 12.9 13.1 13.1 13.2 13.4 13.5 13.6 13.6 13.6 13.5 13.5 13.7 14.2 12.3 7.4 4.4 3.3 2.2 1.4 0.5 0.0 0.0 0.0 0.5 6.7 12.1 13.4 13.8 13.9 14.0 14.1 14.0 14.0 14.1 14.4 14.9 15.3 15.6 15.7 15.6 15.1
5.9 6.2 6.4 6.5 6.7 7.0 7.2 7.6 8.0 8.4 8.5 8.2 8.0 8.2 8.7 9.3 10.1 10.9 11.6 12.0 12.0 11.9 11.8 12.1 12.3 12.5 12.6 12.7 12.9 13.0 13.1 13.2 13.2 13.3 13.4 13.5 13.5 13.4 13.3 13.5 14.0 13.2 8.9 5.1 3.7 2.7 1.7 0.8 0.0 0.0 0.0 2.7 8.9 12.9 13.6 14.1 14.1 14.1 14.0 14.0 14.0 14.2 14.6 15.0 15.3 15.5 15.6 15.6 15.5
5.9 6.1 6.3 6.5 6.7 6.9 7.2 7.5 8.0 8.2 8.1 7.8 7.8 8.2 8.9 9.5 10.2 11.0 11.7 12.0 11.9 11.7 11.7 12.1 12.3 12.4 12.6 12.7 12.8 12.9 13.1 13.2 13.2 13.2 13.2 13.3 13.4 13.3 13.2 13.3 13.8 14.3 11.1 6.1 4.4 3.2 2.2 1.2 0.2 0.0 0.3 4.4 11.2 13.0 13.6 14.0 14.1 14.0 13.9 13.9 14.0 14.3 14.7 15.2 15.3 15.4 15.4 15.5 15.4
5.9 6.2 6.4 6.5 6.7 6.9 7.2 7.5 7.9 7.9 7.7 7.6 7.9 8.6 9.4 10.0 10.5 11.1 11.6 11.8 11.6 11.5 11.7 12.0 12.2 12.4 12.6 12.7 12.7 12.9 13.0 13.2 13.2 13.2 13.2 13.2 13.3 13.4 13.3 13.3 13.5 14.1 12.4 7.1 4.9 3.7 2.7 1.7 0.6 0.0 0.6 4.6 11.6 12.8 13.4 13.8 14.0 13.9 13.8 13.8 14.0 14.3 14.8 15.2 15.3 15.3 15.2 15.2 12.5
5.9 6.2 6.4 6.6 6.8 7.0 7.3 7.5 7.7 7.5 7.5 7.7 8.5 9.3 9.9 10.3 10.6 11.0 11.5 11.7 11.6 11.6 11.7 12.0 12.2 12.4 12.6 12.7 12.7 12.7 12.8 13.0 13.2 13.2 13.2 13.2 13.4 13.4 13.4 13.3 13.4 13.8 12.8 7.9 5.7 4.3 3.2 2.1 0.9 0.0 0.1 3.0 10.7 12.4 13.1 13.7 13.8 13.7 13.7 13.8 14.0 14.3 14.7 15.1 15.2 15.2 15.0 14.9 10.9
6.0 6.3 6.6 6.7 6.9 7.0 7.3 7.5 7.5 7.4 7.6 8.3 9.1 9.9 10.4 10.6 10.8 11.2 11.6 11.8 11.7 11.7 11.8 12.0 12.2 12.5 12.7 12.7 12.7 12.6 12.6 12.8 13.0 13.2 13.3 13.4 13.4 13.5 12.7 13.5 13.5 13.7 13.8 9.9 6.9 5.0 3.7 2.2 1.1 0.0 0.1 2.6 9.6 12.2 12.6 13.2 13.5 13.5 13.6 13.8 14.1 14.4 14.7 14.9 15.0 15.0 14.9 14.8 13.6
6.0 6.5 6.7 6.8 6.9 7.0 7.2 7.4 7.4 7.5 8.0 8.8 9.7 10.5 10.3 10.7 11.4 11.5 11.7 11.8 11.7 11.7 11.9 12.1 12.3 12.5 12.6 12.6 12.6 12.5 12.4 12.4 12.8 13.2 13.4 13.5 13.5 13.6 13.3 13.6 13.5 13.6 14.0 13.1 9.1 5.8 3.9 2.4 1.3 0.2 0.1 2.0 7.4 11.4 12.4 12.9 13.3 13.5 13.6 13.8 14.1 14.4 14.7 14.8 14.8 14.7 14.7 14.7 14.8